Asheville, NC

12:30 AM EST on December 14, 2019 (GMT -0500)
Asheville Regional

Weather History for KAVL - September, 2019

Change the Weather History Date:

Friday, September 6, 2019

  Actual Average Record
Temperature  
Mean Temperature 75 °F 70 °F  
Max Temperature 85 °F 80 °F 95 °F (1954)
Min Temperature 65 °F 59 °F 45 °F (1924)
Degree Days  
Heating Degree Days 0 0  
Month to date heating degree days 0 0  
Since 1 July heating degree days 0 2  
Cooling Degree Days 10 5  
Month to date cooling degree days 60 33  
Year to date cooling degree days 1066 790  
Growing Degree Days 24 (Base 50)    
Moisture  
Dew Point 56 °F    
Average Humidity 56    
Maximum Humidity 81    
Minimum Humidity 31    
Precipitation  
Precipitation 0.00 in 0.13 in 3.26 in (1956)
Month to date precipitation 0.00 0.80  
Year to date precipitation 41.71 32.41  
Snow  
Snow 0.00 in 0.00 in 0.00 in ()
Month to date snowfall 0.0 0.0  
Since 1 July snowfall 0.0 0.0  
Since 1 September snowfall 0.0 0.0  
Snow Depth 0.00 in    
Sea Level Pressure  
Sea Level Pressure 29.89 in    
Wind  
Wind Speed 10 mph (North)    
Max Wind Speed 18 mph    
Max Gust Speed 25 mph    
Visibility 10 miles    
Events      
T = Trace of Precipitation, MM = Missing Value Source: NWS Daily Summary

Daily Weather History Graph

Daily Weather History Graph

Search for Another Location

Airport or City:

Astronomy

Sep. 06, 2019 Rise Set
Actual Time 7:06 AM EDT 7:50 PM EDT
Civil Twilight 6:40 AM EDT 8:16 PM EDT
Nautical Twilight 6:09 AM EDT 8:46 PM EDT
Astronomical Twilight 5:38 AM EDT 9:17 PM EDT
Moon 2:57 PM EDT (9/6) 12:21 AM EDT (9/6)
Length of Visible Light 13h 36m
Length of Day
12h 44m
First Quarter, 55% of the Moon is Illuminated
Sep 6
First Quarter
Sep 14
Full
Sep 21
Last Quarter
Sep 28
New
Oct 5
First Quarter

Hourly Weather History & Observations

Time (EDT) Temp. Heat Index Dew Point Humidity Pressure Visibility Wind Dir Wind Speed Gust Speed Precip Events Conditions
12:54 AM 72.0 °F - 61.0 °F 68% 29.88 in 10.0 mi NNW 11.5 mph - N/A   Clear
1:54 AM 71.1 °F - 60.1 °F 68% 29.88 in 10.0 mi Variable 5.8 mph - N/A   Clear
2:54 AM 70.0 °F - 60.1 °F 71% 29.86 in 10.0 mi NNW 8.1 mph - N/A   Clear
3:54 AM 69.1 °F - 60.1 °F 73% 29.87 in 10.0 mi North 5.8 mph - N/A   Clear
4:54 AM 66.9 °F - 60.1 °F 79% 29.88 in 10.0 mi North 11.5 mph - N/A   Clear
5:54 AM 66.9 °F - 60.1 °F 79% 29.90 in 10.0 mi North 10.4 mph - N/A   Clear
6:54 AM 66.0 °F - 60.1 °F 81% 29.91 in 10.0 mi NNW 8.1 mph - N/A   Clear
7:54 AM 66.0 °F - 60.1 °F 81% 29.91 in 10.0 mi North 5.8 mph - N/A   Clear
8:54 AM 69.1 °F - 60.1 °F 73% 29.92 in 10.0 mi North 9.2 mph - N/A   Clear
9:54 AM 73.0 °F - 59.0 °F 61% 29.92 in 10.0 mi North 13.8 mph 20.7 mph N/A   Clear
10:54 AM 75.0 °F - 60.1 °F 60% 29.92 in 10.0 mi North 12.7 mph 19.6 mph N/A   Clear
11:54 AM 78.1 °F - 59.0 °F 52% 29.91 in 10.0 mi North 11.5 mph - N/A   Clear
12:54 PM 80.1 °F 80.4 °F 57.0 °F 45% 29.89 in 10.0 mi North 13.8 mph 19.6 mph N/A   Clear
1:54 PM 82.0 °F 81.7 °F 57.0 °F 42% 29.88 in 10.0 mi NNW 12.7 mph - N/A   Clear
2:54 PM 84.0 °F 82.6 °F 54.0 °F 35% 29.86 in 10.0 mi North 12.7 mph - N/A   Clear
3:54 PM 84.0 °F - 51.1 °F 32% 29.86 in 10.0 mi North 12.7 mph 23.0 mph N/A   Clear
4:54 PM 84.0 °F - 50.0 °F 31% 29.86 in 10.0 mi North 12.7 mph 21.9 mph N/A   Clear
5:54 PM 82.9 °F - 48.0 °F 29% 29.87 in 10.0 mi North 13.8 mph 20.7 mph N/A   Clear
6:54 PM 80.1 °F - 50.0 °F 35% 29.88 in 10.0 mi North 10.4 mph 18.4 mph N/A   Clear
7:54 PM 75.9 °F - 52.0 °F 43% 29.91 in 10.0 mi NW 9.2 mph - N/A   Clear
8:54 PM 73.9 °F - 53.1 °F 48% 29.92 in 10.0 mi NNW 8.1 mph - N/A   Clear
9:54 PM 73.0 °F - 53.1 °F 49% 29.92 in 10.0 mi North 9.2 mph - N/A   Clear
10:54 PM 71.1 °F - 54.0 °F 55% 29.91 in 10.0 mi Calm Calm - N/A   Clear
11:54 PM 72.0 °F - 53.1 °F 51% 29.91 in 10.0 mi North 8.1 mph - N/A   Clear